Regional Weather Roundup
Issued by NWS

Home | Current Version | Previous Version | Text Only | Print | Product List | Glossary On
Versions: 1 2 3 4 5 6 7 8 9 10 11 12 13 14 15 16 17 18 19 20 21 22 23 24 25 26 27 28 29 30 31 32 33 34 35 36 37 38 39 40 41 42 43 44 45 46 47 48 49 50
000
ASUS43 KDMX 062207
RWRIA

WEATHER ROUNDUP FOR IOWA
NATIONAL WEATHER SERVICE DES MOINES IA
500 PM CDT WED MAY 06 2015

NOTE: "FAIR" INDICATES FEW OR NO CLOUDS BELOW 12,000 FEET WITH NO
SIGNIFICANT WEATHER AND/OR OBSTRUCTIONS TO VISIBILITY.

* - THESE STATIONS ARE NOT NWS STATIONS...THUS NOT UNDER NWS
QUALITY CONTROL.  THEY ALSO DO NOT REPORT WEATHER SUCH
AS PRECIPITATION OR FOG.

IAZ001>003-012>014-020>022-031>034-043>046-062300-
   NORTHWEST IOWA

CITY           SKY/WX    TMP DP  RH WIND       PRES   REMARKS
CARROLL *      MOSUNNY   75  57  53 S26G33    29.82F
CHEROKEE *     CLOUDY    66  66 100 S13       29.80F
DENISON *      CLOUDY    72  63  73 S22G32    29.79F
LE MARS *      PTSUNNY   68  63  83 SE17G26   29.77F
ORANGE CITY *  PTSUNNY   64  61  88 SE13G20   29.78F
SHELDON *      CLOUDY    64 N/A N/A S21G29    29.79F
SIOUX CITY     CLOUDY    68  62  81 S16       29.76F
SPENCER        CLOUDY    67  63  87 S16G24    29.83R
STORM LAKE *   CLOUDY    68  64  88 S18G25    29.83F
$$

IAZ055>058-069>071-079>083-090>094-062300-
   SOUTHWEST IOWA

CITY           SKY/WX    TMP DP  RH WIND       PRES   REMARKS
ATLANTIC *     PTSUNNY   73  57  56 S22G29    29.83F
AUDUBON *      SUNNY     73  59  60 S16G26    29.84F
CLARINDA *     PTSUNNY   72  61  68 SE16G26   29.85F
COUNCIL BLFS * PTSUNNY   70  64  83 S26G33    29.80F
CRESTON *      MOSUNNY   72  61  68 S23G31    29.88F
HARLAN  *      CLOUDY    72  63  73 S25G33    29.84F
LAMONI         PTSUNNY   73  61  65 S20G29    29.92F
RED OAK *      CLOUDY    72  61  68 S21G33    29.82F
SHENANDOAH *   CLOUDY    72  63  73 SE26G36   29.81F
$$

IAZ047>049-059>061-072>074-084-062300-
   CENTRAL IOWA

CITY           SKY/WX    TMP DP  RH WIND       PRES   REMARKS
AMES           CLOUDY    72  57  59 S22       29.89S
ANKENY *       SUNNY     72  57  60 S15G22    29.89F
CHARITON *     MOSUNNY   72  59  64 S21G28    29.93F
DES MOINES     CLOUDY    73  57  57 S15G25    29.90F
GRINNELL*      CLOUDY    73  57  56 S21G26    29.95F
KNOXVILLE *    MOSUNNY   73  55  53 S17       29.91F
MARSHALLTOWN   CLOUDY    75  56  51 S17       29.91S
PELLA *        CLOUDY    73  61  64 S18G25    29.94F
PERRY *          N/A     73  59  60 S21       29.86F
$$

IAZ004>006-015-016-023>025-035-036-062300-
   NORTH CENTRAL IOWA

CITY           SKY/WX    TMP DP  RH WIND       PRES   REMARKS
ALGONA *       PTSUNNY   75  61  60 S30       29.84F
CLARION *      SUNNY     77  59  53 S25G32    29.87S
ESTHERVILLE    PTSUNNY   72  58  61 S25G38    29.82S
FORT DODGE *   PTSUNNY   75  59  57 S20G26    29.86F
MASON CITY     CLOUDY    73  60  63 S17G28    29.90S
FOREST CITY *  SUNNY     73  57  56 S21G29    29.87F
IOWA FALLS *     N/A     75  55  50 S24       29.91S
$$

IAZ007>011-017>019-026>030-037>042-050>054-066-062300-
   NORTHEAST IOWA

CITY           SKY/WX    TMP DP  RH WIND       PRES   REMARKS
CEDAR RAPIDS   TSTM      65  62  90 SW13      29.97S FOG
CHARLES CITY * MOSUNNY   70  66  88 SE18G24   29.93F
CLINTON *      MOSUNNY   81  55  41 S16       30.02F HX  80
DECORAH *      PTSUNNY   73  61  64 SE13G25   29.94F
DUBUQUE        MOSUNNY   79  54  41 S18G28    29.99F
MONTICELLO *   MOSUNNY   79  57  47 SE20G28   29.96F HX  80
OELWEIN *      CLOUDY    68  63  83 SE14      29.98F
WATERLOO       LGT RAIN  70  63  78 SE14G22   29.93F
$$

IAZ064-065-067-068-078-062300-
   EAST CENTRAL IOWA

CITY           SKY/WX    TMP DP  RH WIND       PRES   REMARKS
DAVENPORT      PTSUNNY   82  53  36 S18G28    29.99F HX  81
IOWA CITY      LGT RAIN  69  61  75 SW16G26   30.01R
MT. PLEASANT * LGT RAIN  64  63  94 SW6       30.01R
MUSCATINE *    PTSUNNY   73  61  64 W17G35    30.00R
QUAD CITIES    PTSUNNY   82  53  36 S16G22    29.98F HX  81
$$

IAZ062-063-075>077-085>089-095>099-062300-
   SOUTHEAST IOWA

CITY           SKY/WX    TMP DP  RH WIND       PRES   REMARKS
BURLINGTON     CLOUDY    72  61  68 W15G24    30.01R
FAIRFIELD *    CLOUDY    68  63  83 SE7       29.99S
FORT MADISON * PTSUNNY   70  61  73 W8        30.02F
KEOKUK *       PTSUNNY   72  61  68 SW9       30.00F
OSKALOOSA *      N/A     73  57  56 SW14      29.97F
CENTERVILLE *  SUNNY     73  59  60 S16G28    29.97F
OTTUMWA        CLOUDY    73  58  59 S14       29.96F
WASHINGTON *   CLOUDY    66 N/A N/A S8        30.00S HAZE
$$

ABBREVIATIONS USED IN REMARKS
   TC - TEMPERATURES IN CELSIUS
  WCI - WIND CHILL INDEX
   HX - HEAT INDEX
  VSB - VISIBILITY
$$



USA.gov is the U.S. government's official web portal to all federal, state and local government web resources and services.